Location: Bayshore Village Mobile Home Park
(26.6945°N, 81.8642°W)
Time: 21:11:11
(UTC+00:00)

Okean 2 Rocket - Pass Details

Date: 17 June 2021
Orbit: 617 x 640 km, 82.5° (Epoch: 31 July)

Event Time Altitude Azimuth Distance (km) Brightness Sun altitude
Rises 01:48:50 0° 350° (N) 2,935 7.3 -17.1°
Reaches altitude 10° 01:51:06 10° 347° (NNW) 2,027 6.4 -17.5°
Maximum altitude 01:55:32 64° 267° (W) 706 3.5 -18.2°
Enters shadow 01:58:43 19° 189° (S) 1,530 4.8 -18.8°
